Hourly Weather Champoton

Today, 23 June, Wednesday

Time Temperature Precipitation Wind Pressure Humidity
00:00 +28°C° 0 mm 5 mps 759 mmHg 81%
01:00 +27°C° 0 mm 4 mps 759 mmHg 84%
02:00 +27°C° 0 mm 4 mps 759 mmHg 87%
03:00 +27°C° 0 mm 4 mps 759 mmHg 89%
04:00 +27°C° 0 mm 4 mps 759 mmHg 86%
05:00 +28°C° 0 mm 4 mps 759 mmHg 83%
06:00 +28°C° 0 mm 3 mps 760 mmHg 80%
07:00 +30°C° 0 mm 3 mps 760 mmHg 72%
08:00 +33°C° 0 mm 3 mps 760 mmHg 64%
09:00 +35°C° 0 mm 3 mps 761 mmHg 56%
10:00 +36°C° 0 mm 3 mps 760 mmHg 49%
11:00 +38°C° 0 mm 2 mps 760 mmHg 42%
12:00 +40°C° 0 mm 2 mps 759 mmHg 36%
13:00 +40°C° 0 mm 3 mps 759 mmHg 35%
14:00 +42°C° 0 mm 3 mps 758 mmHg 34%
15:00 +42°C° 0 mm 4 mps 757 mmHg 33%
16:00 +40°C° 0 mm 4 mps 757 mmHg 37%
17:00 +38°C° 0 mm 4 mps 758 mmHg 41%
18:00 +36°C° 0 mm 4 mps 758 mmHg 45%
19:00 +34°C° 0.1 mm 3 mps 758 mmHg 50%
20:00 +31°C° 0.1 mm 3 mps 759 mmHg 56%
21:00 +29°C° 0.1 mm 3 mps 760 mmHg 61%
22:00 +29°C° 0 mm 3 mps 760 mmHg 67%
23:00 +28°C° 0 mm 3 mps 760 mmHg 72%

Tomorrow, 24 June, Thursday

Time Temperature Precipitation Wind Pressure Humidity
00:00 +27°C° 0 mm 4 mps 760 mmHg 78%
01:00 +27°C° 0 mm 4 mps 760 mmHg 84%
02:00 +26°C° 0 mm 3 mps 760 mmHg 89%
03:00 +25°C° 0 mm 3 mps 760 mmHg 95%
04:00 +26°C° 0 mm 3 mps 760 mmHg 93%
05:00 +26°C° 0 mm 3 mps 760 mmHg 90%
06:00 +27°C° 0 mm 3 mps 760 mmHg 88%
07:00 +29°C° 0 mm 3 mps 761 mmHg 77%
08:00 +31°C° 0 mm 3 mps 761 mmHg 66%
09:00 +34°C° 0 mm 3 mps 761 mmHg 55%
10:00 +36°C° 0 mm 3 mps 760 mmHg 47%
11:00 +38°C° 0 mm 2 mps 760 mmHg 40%
12:00 +40°C° 0 mm 2 mps 759 mmHg 32%
13:00 +40°C° 0 mm 3 mps 758 mmHg 31%
14:00 +42°C° 0 mm 3 mps 757 mmHg 29%
15:00 +43°C° 0 mm 4 mps 757 mmHg 27%
16:00 +39°C° 0.1 mm 5 mps 757 mmHg 42%
17:00 +35°C° 0.1 mm 6 mps 757 mmHg 58%
18:00 +30°C° 0.1 mm 6 mps 757 mmHg 73%
19:00 +28°C° 1.2 mm 6 mps 758 mmHg 80%
20:00 +27°C° 1.2 mm 6 mps 759 mmHg 87%
21:00 +24°C° 1.2 mm 6 mps 760 mmHg 95%
22:00 +25°C° 0.5 mm 5 mps 760 mmHg 95%
23:00 +23°C° 0.5 mm 5 mps 760 mmHg 96%

Day after tomorrow, 25 June, Friday

Time Temperature Precipitation Wind Pressure Humidity
00:00 +22°C° 0.5 mm 5 mps 760 mmHg 97%
01:00 +23°C° 0 mm 5 mps 759 mmHg 96%
02:00 +23°C° 0 mm 4 mps 759 mmHg 96%
03:00 +23°C° 0 mm 4 mps 758 mmHg 95%
04:00 +23°C° 0 mm 4 mps 758 mmHg 95%
05:00 +24°C° 0 mm 3 mps 759 mmHg 95%
06:00 +24°C° 0 mm 2 mps 759 mmHg 95%
07:00 +27°C° 0 mm 2 mps 759 mmHg 83%
08:00 +29°C° 0 mm 2 mps 759 mmHg 71%
09:00 +32°C° 0 mm 2 mps 760 mmHg 59%
10:00 +35°C° 0 mm 2 mps 759 mmHg 51%
11:00 +36°C° 0 mm 2 mps 759 mmHg 43%
12:00 +38°C° 0 mm 2 mps 758 mmHg 35%
13:00 +39°C° 0 mm 3 mps 758 mmHg 34%
14:00 +39°C° 0 mm 3 mps 757 mmHg 33%
15:00 +41°C° 0 mm 4 mps 757 mmHg 31%
16:00 +37°C° 0.2 mm 5 mps 757 mmHg 44%
17:00 +34°C° 0.2 mm 5 mps 757 mmHg 57%
18:00 +30°C° 0.2 mm 5 mps 757 mmHg 69%
19:00 +29°C° 0.2 mm 5 mps 757 mmHg 75%
20:00 +27°C° 0.2 mm 4 mps 758 mmHg 80%
21:00 +26°C° 0.2 mm 3 mps 758 mmHg 85%
22:00 +26°C° 0 mm 3 mps 758 mmHg 87%
23:00 +26°C° 0 mm 3 mps 758 mmHg 89%

26 June, Saturday

Time Temperature Precipitation Wind Pressure Humidity
00:00 +25°C° 0 mm 3 mps 758 mmHg 91%
01:00 +25°C° 0.1 mm 3 mps 758 mmHg 92%
02:00 +25°C° 0.1 mm 3 mps 757 mmHg 94%
03:00 +25°C° 0.1 mm 3 mps 757 mmHg 95%
04:00 +25°C° 0 mm 3 mps 757 mmHg 95%
05:00 +25°C° 0 mm 3 mps 757 mmHg 95%
06:00 +25°C° 0 mm 2 mps 758 mmHg 96%
07:00 +27°C° 0 mm 2 mps 758 mmHg 83%
08:00 +30°C° 0 mm 2 mps 758 mmHg 70%
09:00 +32°C° 0 mm 2 mps 758 mmHg 57%
10:00 +35°C° 0 mm 2 mps 758 mmHg 50%
11:00 +37°C° 0 mm 2 mps 758 mmHg 43%
12:00 +38°C° 0 mm 2 mps 757 mmHg 36%
13:00 +38°C° 0 mm 3 mps 757 mmHg 37%
14:00 +38°C° 0 mm 3 mps 756 mmHg 37%
15:00 +38°C° 0 mm 4 mps 755 mmHg 38%
16:00 +34°C° 0.7 mm 4 mps 756 mmHg 55%
17:00 +30°C° 0.7 mm 4 mps 756 mmHg 73%
18:00 +26°C° 0.7 mm 3 mps 756 mmHg 90%
19:00 +26°C° 0.9 mm 3 mps 757 mmHg 93%
20:00 +25°C° 0.9 mm 3 mps 757 mmHg 95%
21:00 +25°C° 0.9 mm 3 mps 758 mmHg 97%
22:00 +24°C° 0.5 mm 3 mps 758 mmHg 97%
23:00 +24°C° 0.5 mm 3 mps 758 mmHg 98%

27 June, Sunday

Time Temperature Precipitation Wind Pressure Humidity
00:00 +24°C° 0.5 mm 3 mps 758 mmHg 98%
01:00 +24°C° 0 mm 3 mps 758 mmHg 98%
02:00 +24°C° 0 mm 3 mps 757 mmHg 98%
03:00 +24°C° 0 mm 3 mps 757 mmHg 97%
04:00 +25°C° 0 mm 3 mps 757 mmHg 97%
05:00 +25°C° 0 mm 3 mps 757 mmHg 98%
06:00 +25°C° 0 mm 2 mps 758 mmHg 98%
07:00 +27°C° 0 mm 3 mps 758 mmHg 89%
08:00 +29°C° 0 mm 3 mps 758 mmHg 80%
09:00 +30°C° 0 mm 3 mps 758 mmHg 70%
10:00 +33°C° 0 mm 3 mps 758 mmHg 61%
11:00 +35°C° 0 mm 2 mps 758 mmHg 52%
12:00 +37°C° 0 mm 2 mps 758 mmHg 43%
13:00 +37°C° 0 mm 2 mps 757 mmHg 41%
14:00 +38°C° 0 mm 3 mps 757 mmHg 39%
15:00 +38°C° 0 mm 3 mps 756 mmHg 37%
16:00 +35°C° 4.5 mm 3 mps 756 mmHg 51%
17:00 +31°C° 4.5 mm 3 mps 756 mmHg 65%
18:00 +28°C° 4.5 mm 3 mps 757 mmHg 79%
19:00 +27°C° 5.2 mm 3 mps 757 mmHg 85%
20:00 +26°C° 5.2 mm 2 mps 758 mmHg 92%
21:00 +24°C° 5.2 mm 2 mps 759 mmHg 99%
22:00 +24°C° 0.4 mm 2 mps 759 mmHg 99%
23:00 +24°C° 0.4 mm 2 mps 759 mmHg 99%

28 June, Monday

Time Temperature Precipitation Wind Pressure Humidity
00:00 +24°C° 0.4 mm 2 mps 759 mmHg 98%
01:00 +25°C° 0 mm 2 mps 759 mmHg 98%
02:00 +25°C° 0 mm 2 mps 759 mmHg 98%
03:00 +25°C° 0 mm 1 mps 758 mmHg 98%
04:00 +25°C° 0 mm 2 mps 758 mmHg 98%
05:00 +25°C° 0 mm 2 mps 759 mmHg 98%
06:00 +25°C° 0 mm 2 mps 759 mmHg 98%
07:00 +26°C° 0.1 mm 2 mps 759 mmHg 95%
08:00 +27°C° 0.1 mm 3 mps 760 mmHg 93%
09:00 +28°C° 0.1 mm 3 mps 760 mmHg 91%
10:00 +29°C° 0.1 mm 2 mps 760 mmHg 79%
11:00 +31°C° 0.1 mm 2 mps 759 mmHg 67%
12:00 +33°C° 0.1 mm 1 mps 759 mmHg 55%
13:00 +32°C° 0.2 mm 1 mps 759 mmHg 59%
14:00 +32°C° 0.2 mm 1 mps 759 mmHg 63%
15:00 +31°C° 0.2 mm 1 mps 758 mmHg 67%
16:00 +30°C° 0 mm 1 mps 758 mmHg 72%
17:00 +29°C° 0 mm 1 mps 758 mmHg 77%
18:00 +28°C° 0 mm 1 mps 758 mmHg 82%
19:00 +27°C° 1 mm 1 mps 759 mmHg 87%
20:00 +26°C° 1 mm 1 mps 759 mmHg 91%
21:00 +25°C° 1 mm 2 mps 760 mmHg 96%
22:00 +25°C° 1.2 mm 2 mps 760 mmHg 96%
23:00 +25°C° 1.2 mm 2 mps 760 mmHg 97%
Show more

We Need Your Consent

Meteoprog and our Service Providers may store and access personal data such as cookies, device identifiers or other similar technologies on your device and process such data to personalise content and ads, as well as provide social media features and to analyse the traffic.

  • Store and/or access information on your device

    Cookies, device identifiers or other information can be stored or accessed on your device for the purposes indicated above.

  • Personalised ads and content, ad and content measurement, audience insights, and products development

    Ads and content can be personalised based on a profile. More data can be added to better personalise ads and content. Ad and content performance can be measured. Insights about the audience who saw the ads and content can be derived. Such data can be used to develop or improve user’s experience, systems and software.

By clicking ‘I Agree’ you will allow the use of indicated cookies, device identifiers, web beacons or other similar technologies. Your settings can be changed in the browser on your device.

For certain purposes, legitimate interests may be relied on, rather than consent. You can read more about this in our Privacy and Cookie Policy.